[[{"header":{"parameterUnit":"m.s-1","parameterCategory":1,"la1":30.2991,"la2":30.254,"lo1":-89.0895,"lo2":-89.0444,"dy":0.0017,"dx":0.0017,"nx":28,"ny":28,"refTime":"2023-08-23T09:00:00:Z","depth":0,"parameterNumber":2,"parameterNumberName":"U-component_of_WINDS"},"data":[0,0,0,0,0,0,0,0,0,0,0,0,0,0,0,0,0,0,0,0,0,0,0,0,0,0,0,0,0,0,0,0,0,0,0,0,0,0,0,0,0,0,0,0,0,0,0,0,0,0,0,0,0,0,0,0,0,0,0.5236,0.5236,0,0.5316,0.5317,0.5318,0.5376,0.5376,0.5377,0.5377,0.5456,0.5457,0.5459,0,0,0,0,0,0,0,0,0,0,0,0,0,0.5129,0.513,0.5236,0.5237,0.5238,0.5316,0.5317,0.5318,0.5375,0.5376,0.5377,0.5377,0.5455,0.5457,0.5459,0,0,0,0,0,0,0,0,0,0,0,0,0,0.5188,0.5131,0.5235,0.5276,0.528,0.5316,0.5317,0.5318,0.5375,0.5376,0.5377,0.5377,0.5454,0.5457,0.5459,0.546,0,0,0.5467,0.5468,0,0,0,0,0,0,0,0,0.5185,0.5192,0.5269,0.5273,0.5278,0.5337,0.5308,0.5366,0.5375,0.5339,0.5377,0.5378,0.5415,0.5421,0.5434,0.5464,0.5467,0.5467,0.5468,0.547,0.547,0,0,0,0,0,0,0,0.5181,0.5189,0.5267,0.527,0.5275,0.5289,0.5298,0.5319,0.5372,0.5342,0.5347,0.5356,0.5418,0.5432,0.5437,0.5468,0.5467,0.5469,0.5471,0.5472,0.5502,0.5501,0,0,0,0,0,0,0.5171,0.5185,0.5265,0.527,0.5232,0.529,0.5301,0.5317,0.5372,0.5381,0.5355,0.5358,0.5427,0.5434,0.5439,0.5444,0.547,0.5472,0.5473,0.5502,0.5502,0.5501,0,0,0,0,0,0,0.5168,0.5177,0.5262,0.5229,0.5241,0.5291,0.5309,0.5318,0.5332,0.5382,0.5391,0.536,0.5428,0.5436,0.5455,0.5447,0.5473,0.5475,0.5503,0.5502,0.5501,0.5452,0,0,0,0,0,0,0.5165,0.5176,0.5177,0.5228,0.5242,0.5276,0.5309,0.5319,0.5337,0.5342,0.5388,0.5397,0.5429,0.5451,0.5457,0.5451,0.5477,0.5504,0.5503,0.5502,0.5454,0.5449,0.5445,0,0,0,0,0,0.5161,0.5159,0.5177,0.5186,0.5245,0.5275,0.5283,0.5321,0.5336,0.5337,0.5369,0.5395,0.5447,0.5452,0.546,0.5454,0.5505,0.5503,0.5502,0.5456,0.545,0.5445,0,0,0,0,0,0,0.5105,0.5167,0.5187,0.5203,0.5233,0.5285,0.5288,0.5314,0.534,0.5343,0.5389,0.5399,0.5412,0.5436,0.544,0.5458,0.5479,0.5479,0.5442,0.5437,0.5432,0.5425,0.5479,0,0,0,0,0,0.5094,0.5115,0.5168,0.5176,0.5191,0.5237,0.5251,0.5278,0.5312,0.5324,0.5358,0.5388,0.5411,0.5425,0.5449,0.5458,0.5469,0.5458,0.5454,0.5449,0.5448,0.5454,0.545,0.5496,0.5496,0.5496,0,0,0.5073,0.5109,0.5119,0.5166,0.5193,0.5212,0.5247,0.5266,0.528,0.5327,0.5347,0.5372,0.5409,0.5423,0.543,0.5442,0.5438,0.5448,0.5444,0.5445,0.5452,0.5448,0.5444,0.5495,0.5495,0.5495,0,0,0.5043,0.5073,0.5083,0.511,0.5151,0.5182,0.5184,0.5232,0.5251,0.5272,0.5308,0.5325,0.5364,0.5389,0.5407,0.5387,0.5412,0.5394,0.5369,0.5374,0.537,0.5367,0.536,0.5356,0.5393,0.5393,0.5393,0,0.501,0.5042,0.5085,0.5102,0.5121,0.5166,0.5176,0.5199,0.5245,0.5257,0.5271,0.5321,0.5349,0.5369,0.5364,0.5377,0.5381,0.5388,0.5368,0.5365,0.5363,0.5356,0.5353,0.539,0.5391,0.5391,0.5391,0,0.4999,0.502,0.5023,0.5068,0.5088,0.5101,0.5145,0.516,0.5186,0.5214,0.5235,0.527,0.5302,0.531,0.5334,0.5333,0.5339,0.5359,0.5382,0.5355,0.5349,0.5347,0.5387,0.5388,0.5388,0.5389,0,0,0.4934,0.5004,0.5004,0.5025,0.5075,0.5091,0.5107,0.5139,0.515,0.5181,0.5194,0.5227,0.5246,0.5266,0.5294,0.5299,0.5281,0.5319,0.5321,0.531,0.5281,0.5264,0.5261,0.5298,0.5298,0.5298,0.5277,0,0.4911,0.4942,0.4982,0.4998,0.5018,0.5062,0.5075,0.5106,0.5134,0.5154,0.5184,0.5206,0.5231,0.5243,0.525,0.5281,0.5275,0.5284,0.531,0.531,0.5298,0.5258,0.524,0.5219,0.5276,0.5275,0.5275,0,0.4888,0.4917,0.4937,0.4985,0.4994,0.5006,0.5039,0.5058,0.5094,0.5114,0.5137,0.5167,0.5185,0.5206,0.523,0.5235,0.5248,0.5265,0.5265,0.5268,0.529,0.5258,0.5214,0.521,0.5272,0.5272,0.5272,0,0.4837,0.4882,0.49,0.4916,0.4973,0.498,0.5003,0.504,0.5058,0.5087,0.5098,0.5128,0.5144,0.5166,0.5204,0.5216,0.5224,0.5248,0.5239,0.5238,0.5238,0.5237,0.5193,0.5248,0.5248,0.5248,0.5248,0,0.4806,0.4816,0.4878,0.4888,0.49,0.4946,0.4956,0.4984,0.5016,0.5032,0.5072,0.5085,0.5135,0.5154,0.5184,0.5199,0.5206,0.5222,0.523,0.5218,0.5216,0.5226,0.5228,0.5248,0.5248,0.5248,0.5248,0,0.4751,0.4793,0.4815,0.4867,0.4881,0.4887,0.4932,0.4943,0.4974,0.4993,0.5,0.5048,0.5073,0.5114,0.515,0.517,0.5179,0.5193,0.5167,0.5172,0.5161,0.5161,0.5121,0.5118,0.5175,0.5175,0.5174,0,0.4728,0.4737,0.4791,0.4805,0.4828,0.485,0.4868,0.4913,0.493,0.4972,0.4978,0.5007,0.5032,0.507,0.5107,0.5135,0.5149,0.5133,0.5153,0.5141,0.5147,0.5146,0.5146,0.5128,0.5127,0.5126,0.5126,0,0.4682,0.4702,0.4728,0.476,0.4781,0.4809,0.4838,0.4847,0.4899,0.4916,0.4943,0.4962,0.5001,0.5028,0.5062,0.5085,0.5113,0.5119,0.5119,0.5106,0.509,0.5098,0.5153,0.512,0.512,0.5121,0.5121,0.5121,0.4641,0.4651,0.4691,0.4718,0.4745,0.4772,0.4785,0.4818,0.4842,0.4877,0.4902,0.4927,0.4963,0.5012,0.5034,0.5054,0.5066,0.5065,0.5065,0.5064,0.5059,0.5089,0.506,0.506,0.5061,0.5061,0.5061,0,0.4596,0.4624,0.4649,0.4689,0.471,0.4737,0.4772,0.4787,0.4809,0.4841,0.4865,0.4896,0.4923,0.4963,0.4993,0.5001,0.5015,0.5007,0.5006,0.5011,0.5047,0.5044,0.4996,0.4996,0.4996,0.4996,0.4996,0.4996,0.4575,0.4593,0.4618,0.465,0.4678,0.4704,0.4721,0.4745,0.4771,0.4804,0.4828,0.4854,0.4889,0.4922,0.4948,0.4959,0.4968,0.4956,0.4971,0.5003,0.5009,0.5014,0.5012,0.4958,0.4958,0.4934,0.4934,0.4933]},{"header":{"parameterUnit":"m.s-1","parameterCategory":1,"la1":30.2991,"la2":30.254,"lo1":-89.0895,"lo2":-89.0444,"dy":0.0017,"dx":0.0017,"nx":28,"ny":28,"refTime":"2023-08-23T09:00:00:Z","depth":0,"parameterNumber":3,"parameterNumberName":"V-component_of_WINDS"},"data":[0,0,0,0,0,0,0,0,0,0,0,0,0,0,0,0,0,0,0,0,0,0,0,0,0,0,0,0,0,0,0,0,0,0,0,0,0,0,0,0,0,0,0,0,0,0,0,0,0,0,0,0,0,0,0,0,0,0,-0.0364,-0.0365,0,-0.0494,-0.0495,-0.0497,-0.0546,-0.0546,-0.0545,-0.0545,-0.0684,-0.0688,-0.0692,0,0,0,0,0,0,0,0,0,0,0,0,0,-0.0164,-0.0168,-0.0364,-0.0365,-0.0367,-0.0494,-0.0495,-0.0497,-0.0546,-0.0546,-0.0545,-0.0545,-0.0683,-0.0687,-0.0692,0,0,0,0,0,0,0,0,0,0,0,0,0,-0.0268,-0.0169,-0.0363,-0.0407,-0.0412,-0.0493,-0.0495,-0.0498,-0.0546,-0.0546,-0.0545,-0.0545,-0.0681,-0.0687,-0.0693,-0.0743,0,0,-0.0712,-0.0714,0,0,0,0,0,0,0,0,-0.0262,-0.0276,-0.0399,-0.0404,-0.041,-0.0503,-0.0476,-0.058,-0.0547,-0.0495,-0.0545,-0.0544,-0.0625,-0.0635,-0.0661,-0.0749,-0.0755,-0.0712,-0.0716,-0.0718,-0.072,0,0,0,0,0,0,0,-0.0255,-0.027,-0.0415,-0.04,-0.0407,-0.0422,-0.0436,-0.0496,-0.0562,-0.05,-0.0504,-0.0518,-0.0628,-0.0655,-0.0665,-0.0757,-0.0712,-0.0717,-0.0721,-0.0724,-0.0894,-0.0895,0,0,0,0,0,0,-0.024,-0.0264,-0.0411,-0.0419,-0.0333,-0.0426,-0.0441,-0.0474,-0.0561,-0.0574,-0.0519,-0.052,-0.0645,-0.0658,-0.067,-0.0735,-0.0718,-0.0724,-0.0728,-0.0893,-0.0894,-0.0895,0,0,0,0,0,0,-0.0235,-0.0253,-0.0406,-0.0343,-0.0363,-0.043,-0.0466,-0.0477,-0.0504,-0.0575,-0.0588,-0.0534,-0.0645,-0.0661,-0.0724,-0.074,-0.0727,-0.0732,-0.0892,-0.0894,-0.0895,-0.0864,0,0,0,0,0,0,-0.0229,-0.0251,-0.0269,-0.0343,-0.0366,-0.0456,-0.0467,-0.048,-0.0514,-0.0517,-0.0593,-0.0606,-0.0646,-0.0715,-0.073,-0.0748,-0.0737,-0.0891,-0.0893,-0.0894,-0.0864,-0.0864,-0.0864,0,0,0,0,0,-0.0222,-0.0256,-0.0269,-0.0287,-0.039,-0.0457,-0.0471,-0.0514,-0.0515,-0.0535,-0.0581,-0.0603,-0.0736,-0.0721,-0.0739,-0.0759,-0.089,-0.0892,-0.0894,-0.0864,-0.0864,-0.0864,0,0,0,0,0,0,-0.0184,-0.0266,-0.0282,-0.034,-0.0391,-0.0465,-0.0491,-0.0513,-0.0566,-0.0567,-0.0621,-0.0638,-0.0697,-0.0734,-0.0716,-0.0812,-0.0815,-0.082,-0.0785,-0.0786,-0.0786,-0.0776,-0.0742,0,0,0,0,0,-0.0182,-0.0227,-0.0298,-0.0342,-0.0367,-0.0424,-0.0455,-0.0484,-0.054,-0.0562,-0.0613,-0.0667,-0.0721,-0.0756,-0.081,-0.0869,-0.0888,-0.0892,-0.0892,-0.0892,-0.0896,-0.0932,-0.0935,-0.0902,-0.0902,-0.0902,0,0,-0.0179,-0.0229,-0.0255,-0.0336,-0.0378,-0.0426,-0.0442,-0.0492,-0.0528,-0.057,-0.0632,-0.0671,-0.0736,-0.0797,-0.0827,-0.0831,-0.091,-0.0895,-0.0894,-0.0899,-0.0934,-0.0937,-0.094,-0.0903,-0.0903,-0.0903,0,0,-0.0197,-0.024,-0.0282,-0.0324,-0.0388,-0.0426,-0.0436,-0.0507,-0.0534,-0.0596,-0.0629,-0.0675,-0.0766,-0.0811,-0.0846,-0.0882,-0.0905,-0.0898,-0.0899,-0.0933,-0.0936,-0.0939,-0.0952,-0.0957,-0.0902,-0.0902,-0.0902,0,-0.0186,-0.0257,-0.0301,-0.0349,-0.0384,-0.0423,-0.0467,-0.0506,-0.0585,-0.061,-0.0612,-0.0728,-0.0774,-0.0847,-0.0856,-0.0882,-0.0897,-0.089,-0.0932,-0.0935,-0.0938,-0.0952,-0.0957,-0.0901,-0.0901,-0.0901,-0.0902,0,-0.0241,-0.0289,-0.0316,-0.0389,-0.0428,-0.0473,-0.0526,-0.056,-0.0586,-0.0625,-0.0689,-0.0746,-0.0812,-0.0832,-0.0858,-0.0909,-0.0909,-0.0921,-0.0925,-0.0939,-0.0953,-0.0959,-0.0899,-0.09,-0.09,-0.09,0,0,-0.0239,-0.0335,-0.0344,-0.0378,-0.0452,-0.0491,-0.054,-0.0603,-0.0631,-0.0685,-0.0728,-0.0804,-0.0816,-0.0855,-0.0888,-0.0917,-0.0943,-0.0926,-0.0928,-0.0927,-0.1004,-0.0995,-0.1,-0.0959,-0.096,-0.0961,-0.0999,0,-0.0267,-0.0353,-0.0394,-0.0463,-0.051,-0.0547,-0.059,-0.064,-0.0678,-0.0725,-0.0767,-0.0821,-0.0831,-0.0855,-0.0887,-0.0933,-0.096,-0.0931,-0.1001,-0.1003,-0.0984,-0.1007,-0.0998,-0.103,-0.1004,-0.1005,-0.1006,0,-0.0312,-0.0364,-0.0436,-0.0504,-0.0526,-0.0562,-0.0624,-0.0667,-0.0727,-0.0752,-0.0796,-0.0827,-0.0882,-0.0881,-0.0958,-0.0938,-0.0969,-0.0997,-0.0999,-0.1008,-0.1006,-0.1017,-0.1042,-0.1047,-0.1015,-0.1014,-0.1014,0,-0.0304,-0.0392,-0.0447,-0.0474,-0.0555,-0.0581,-0.0616,-0.0674,-0.071,-0.0764,-0.0788,-0.0849,-0.0882,-0.0929,-0.0977,-0.0972,-0.105,-0.1053,-0.1074,-0.1073,-0.1089,-0.1087,-0.1119,-0.1108,-0.1108,-0.1108,-0.1108,0,-0.0332,-0.0375,-0.0444,-0.0478,-0.0528,-0.0576,-0.0625,-0.0663,-0.0715,-0.0758,-0.0795,-0.0836,-0.0896,-0.0945,-0.0983,-0.1041,-0.1056,-0.1079,-0.1089,-0.1076,-0.1073,-0.1098,-0.1097,-0.1109,-0.1109,-0.1108,-0.1108,0,-0.0332,-0.0379,-0.0442,-0.0513,-0.0532,-0.0566,-0.0628,-0.0663,-0.0702,-0.0757,-0.0773,-0.0835,-0.0894,-0.0946,-0.1025,-0.1051,-0.1111,-0.1123,-0.109,-0.1096,-0.1114,-0.1111,-0.1163,-0.1173,-0.1154,-0.1154,-0.1154,0,-0.0347,-0.038,-0.0455,-0.0486,-0.052,-0.0569,-0.0605,-0.0654,-0.0691,-0.0761,-0.0788,-0.0849,-0.0901,-0.0994,-0.1048,-0.1109,-0.1123,-0.1137,-0.1133,-0.1119,-0.1124,-0.1121,-0.1126,-0.1137,-0.1137,-0.1137,-0.1137,0,-0.0368,-0.039,-0.0439,-0.0497,-0.0538,-0.0586,-0.0636,-0.066,-0.0719,-0.0758,-0.0818,-0.0858,-0.0938,-0.0999,-0.1066,-0.1105,-0.1131,-0.1138,-0.1146,-0.1133,-0.1113,-0.1125,-0.1091,-0.1136,-0.1136,-0.1136,-0.1136,-0.1136,-0.0377,-0.0409,-0.0466,-0.052,-0.0562,-0.0607,-0.0644,-0.0687,-0.0737,-0.0805,-0.0832,-0.0893,-0.0953,-0.1045,-0.1084,-0.1134,-0.1139,-0.115,-0.1154,-0.1156,-0.1154,-0.1105,-0.1147,-0.1147,-0.1147,-0.1147,-0.1147,0,-0.0401,-0.0439,-0.0488,-0.0555,-0.0598,-0.0617,-0.0674,-0.0709,-0.0761,-0.0814,-0.0864,-0.0933,-0.0993,-0.1051,-0.1114,-0.1144,-0.1157,-0.1159,-0.1157,-0.1166,-0.1146,-0.1132,-0.1146,-0.1146,-0.1146,-0.1146,-0.1146,-0.1146,-0.0418,-0.0473,-0.0502,-0.0579,-0.0618,-0.0677,-0.0707,-0.075,-0.0792,-0.0868,-0.0917,-0.0953,-0.1009,-0.1077,-0.1133,-0.1149,-0.1171,-0.1169,-0.1188,-0.1168,-0.1167,-0.1167,-0.1155,-0.1173,-0.1173,-0.1204,-0.1205,-0.1205]}]]